Flag for Morocco Weather past 2 weeks in Tangier, Morocco

Now
63 °F

Scattered clouds.


Feels Like: 63 °F
Forecast: 52 / 67 °F
Wind: 14 mph from West

Location: Tanger Aerodrome

Current Time: Apr 26, 2015 at 8:46:10 PM

Latest Report: Apr 26, 2015 at 8:00 PM


Visibility: N/A

Pressure: 30.01 "Hg

Humidity: 77%

Dew point: 55 °F

Location of TangierLocation

Historic Weather in Tangier — Graph

°F

Tangier temperature yesterday

Maximum temperature yesterday: 68 °F (at 12:00 PM)
Minimum temperature yesterday: 52 °F (at 1:00 AM)
Average temperature yesterday: 60 °F

Past Weeks' High & Low Weather Summary

 TemperatureHumidityPressure
High75 °F (Apr 23, 3:00 PM)100% (Apr 17, 6:00 AM)30.18 "Hg (Apr 17, 6:00 AM)
Low46 °F (Apr 20, 7:00 AM)46% (Apr 20, 5:00 PM)29.92 "Hg (Apr 26, 2:30 PM)
Average61 °F78%30.05 "Hg
* Reported Apr 11 7:00 PM — Apr 26 7:30 PM, Tangier, Weather by CustomWeather, © 2015

Note: Actual official high and low records may vary slightly from our data, if they occured in-between our weather recording intervals... More about our weather records

Advertising

Tangier weather history for previous 24 hours

 ConditionsComfort  
Time TempWeatherWind HumidityBarometerVisibility
7:30 PM
Sun, Apr 26
63 °FScattered clouds.13 mph77%30.01 "HgN/A
7:00 PM64 °FScattered clouds.14 mph73%29.98 "HgN/A
6:30 PM64 °FScattered clouds.17 mph73%29.98 "HgN/A
6:00 PM64 °FPartly sunny.16 mph78%29.98 "HgN/A
5:30 PM64 °FPartly sunny.17 mph83%29.95 "HgN/A
5:00 PM63 °FOvercast.14 mph88%29.95 "Hg5 mi
4:30 PM63 °FOvercast.15 mph94%29.95 "Hg5 mi
4:00 PM63 °FLight rain. Overcast.15 mph94%29.95 "Hg4 mi
3:30 PM63 °FLight rain. Fog.16 mph88%29.95 "Hg2 mi
3:00 PM61 °FLight rain. Fog.14 mph88%29.95 "Hg2 mi
2:30 PM64 °FLight rain. Fog.23 mph88%29.92 "Hg2 mi
2:00 PM66 °FBroken clouds.23 mph78%29.95 "Hg5 mi
1:30 PM68 °FBroken clouds.25 mph73%29.95 "Hg5 mi
1:00 PM66 °FBroken clouds.25 mph78%29.95 "Hg5 mi
12:30 PM66 °FBroken clouds.26 mph78%29.95 "Hg5 mi
12:00 PM68 °FBroken clouds.23 mph73%29.95 "Hg5 mi
11:30 AM68 °FBroken clouds.24 mph73%29.95 "Hg5 mi
11:00 AM68 °FPartly sunny.22 mph73%29.95 "Hg5 mi
10:30 AM64 °FBroken clouds.22 mph78%29.95 "Hg5 mi
10:00 AM64 °FBroken clouds.17 mph78%29.95 "Hg5 mi
9:30 AM64 °FBroken clouds.15 mph78%29.95 "Hg5 mi
9:00 AM63 °FBroken clouds.15 mph83%29.95 "Hg5 mi
8:30 AM63 °FBroken clouds.14 mph83%29.95 "HgN/A
8:00 AM61 °FBroken clouds.13 mph88%29.95 "HgN/A
7:30 AM61 °FBroken clouds.10 mph88%29.95 "HgN/A
7:00 AM61 °FBroken clouds.14 mph88%29.95 "HgN/A
6:30 AM61 °FPartly cloudy.10 mph88%29.95 "HgN/A
6:00 AM61 °FPartly cloudy.10 mph88%29.95 "HgN/A
5:30 AM61 °FPartly cloudy.7 mph88%29.95 "HgN/A
5:00 AM61 °FPartly cloudy.8 mph83%29.95 "HgN/A
4:30 AM61 °FPartly cloudy.6 mph83%29.95 "HgN/A
4:00 AM61 °FPartly cloudy.6 mph88%29.98 "HgN/A
3:30 AM61 °FCool.5 mph88%29.98 "HgN/A
3:00 AM61 °FPartly cloudy.2 mph83%29.98 "HgN/A
2:30 AM61 °FPartly cloudy.3 mph88%29.98 "HgN/A
2:00 AM61 °FPassing clouds.3 mph88%29.98 "HgN/A
1:00 AM61 °FPassing clouds.5 mph88%30.01 "HgN/A
12:30 AM59 °FPassing clouds.No wind88%30.01 "HgN/A
12:00 AM61 °FPassing clouds.No wind83%30.04 "HgN/A
11:30 PM
Sat, Apr 25
61 °FPassing clouds.3 mph88%30.04 "HgN/A
11:00 PM61 °FPassing clouds.5 mph88%30.01 "HgN/A
10:00 PM61 °FPassing clouds.5 mph88%30.04 "Hg5 mi
9:30 PM61 °FPassing clouds.No wind88%30.04 "Hg5 mi
9:00 PM61 °FPassing clouds.3 mph88%30.04 "Hg5 mi
8:30 PM61 °FPassing clouds.5 mph88%30.04 "Hg5 mi
8:00 PM63 °FPassing clouds.5 mph83%30.01 "Hg5 mi
Weather by CustomWeather, © 2015

See weather overviewHow to use our weather pages